Terminal Aerodrome Forecast
Issued by NWS

Home | Current Version | Previous Version | Text Only | Print | Product List | Glossary Off
Versions: 1 2 3 4 5 6 7 8 9 10 11 12 13 14 15 16 17

000
FTUS43 KTOP 212300
TAFFOE
TAF
KFOE 212325Z 2200/2224 19014G22KT P6SM SCT250
     FM220100 19009KT P6SM SCT200
     FM221700 24012KT P6SM SCT150=

USA.gov is the U.S. government's official web portal to all federal, state and local government web resources and services.